Regional Weather Roundup
Issued by NWS

Home | Current Version | Previous Version | Graphics & Text | Print | Product List | Glossary On
Versions: 1 2 3 4 5 6 7 8 9 10 11 12 13 14 15 16 17 18 19 20 21 22 23 24 25 26 27
000
ASUS45 KBOU 292207
RWRCO

WEATHER ROUNDUP FOR COLORADO
NATIONAL WEATHER SERVICE DENVER/BOULDER CO
400 PM MDT WED MAR 29 2017

NOTE: "FAIR" INDICATES FEW OR NO CLOUDS BELOW 12000 FEET WITH NO
SIGNIFICANT WEATHER AND/OR OBSTRUCTIONS TO VISIBILITY.

COZ001>005-013-030-031-292300-
...NORTHWEST COLORADO...

CITY           SKY/WX    TMP DP  RH WIND       PRES   REMARKS
CRAIG          FAIR      48  26  42 SW8G18    30.10F
HAYDEN         FAIR      48  25  40 SW10G16   30.09F
MEEKER         FAIR      50  28  42 VRB5      30.10F
MOUNT WERNER   NOT AVBL
STEAMBOAT SPGS CLOUDY    48  28  46 SW10G20   30.08F
WALDEN         NOT AVBL
$$

COZ006>008-011-292300-
...WEST CENTRAL VALLEYS...

CITY           SKY/WX    TMP DP  RH WIND       PRES   REMARKS
GRAND JUNCTION FAIR      61  25  25 W6        30.03F
MONTROSE       FAIR      56  26  31 CALM      30.07F
EAGLE          MOSUNNY   55  25  30 CALM      30.06F
RIFLE          FAIR      58  23  26 NW5G17    30.05F
DELTA          FAIR      64  24  22 W6G20     30.02F
NUCLA          FAIR      61  21  21 NW17G23   30.07F
$$

COZ017>023-064>068-292300-
...SOUTHWEST COLORADO...

CITY           SKY/WX    TMP DP  RH WIND       PRES   REMARKS
DURANGO        FAIR      60   7  12 NW10G17   29.95F
CORTEZ         FAIR      62  24  23 NW20G25   30.01S
PAGOSA SPRINGS FAIR      55   8  15 NE7       30.00S
TELLURIDE      FAIR      42  15  33 NW7       30.14S
WOLF CREEK PAS NOT AVBL
$$

COZ009-010-012-014-032>034-037-058>063-292300-
...CENTRAL COLORADO...

CITY           SKY/WX    TMP DP  RH WIND       PRES   REMARKS
ASPEN          FAIR      50  22  33 NW14G20   30.05F
BUENA VISTA    FAIR      53  10  17 NW22G31   30.01S
COPPER MTN     NOT AVBL
BERTHOUD PASS  FAIR      19   9  63 NW23G36   30.12F HAZE    WCI   2
COTTONWOOD PAS FAIR      45   9  23 CALM      30.07S
GUNNISON       FAIR      51  15  23 NW14      30.04F
KREMMLING      FAIR      54  25  32 NW12G24   30.08R
LEADVILLE      FAIR      38  12  34 N14G26    30.08S
MONARCH PASS   FAIR      32  14  47 N14G21    30.24S WCI  22
SALIDA         FAIR      57   4  11 N18G35    30.06S
SUNLIGHT       FAIR      32  23  69 W8G18     30.21R WCI  25
WILKERSON PASS FAIR      32  23  69 E3        30.12S
$$

COZ069>075-292300-
...SAN LUIS VALLEY/SANGRE DE CRISTO MOUNTAINS...

CITY           SKY/WX    TMP DP  RH WIND       PRES   REMARKS
ALAMOSA        CLOUDY    53  21  28 N14       29.97F
LA VETA PASS   NOT AVBL
SAGUACHE       FAIR      54  18  24 NW22G32   30.00S
$$

COZ035-036-038>040-292300-
...NORTHERN COLORADO FRONT RANGE...

CITY           SKY/WX    TMP DP  RH WIND       PRES   REMARKS
DENVER INTL AP FAIR      55  30  38 N15G25    29.97F
DMNS CITY PARK   N/A     56  27  33 N8G18     29.97F
AURORA         MOSUNNY   54  31  41 N17G24    29.98F
FRONT RANGE AP NOT AVBL
ERIE MUNI ARPT FAIR      59  26  28 NE7G20      N/A
BOULDER MUN AP FAIR      57  28  33 CALM      29.97F
CENTENNIAL     FAIR      54  31  41 N18G25    29.99F
BROOMFIELD     MOSUNNY   57  28  33 N17       29.99F
FORT COLLINS   FAIR      60  28  29 N21G26    29.96F
LONGMONT       FAIR      63  27  25 NE13      29.99S
$$

COZ041-046-047-076>085-087-088-292300-
...PIKES PEAK/PALMER DIVIDE AND SOUTHERN FOOTHILLS...

CITY           SKY/WX    TMP DP  RH WIND       PRES   REMARKS
COLO. SPRINGS  FAIR      51  28  41 N22G40    29.98F
A. F. ACADEMY  NOT AVBL
SCHRIEVER AFB  PTSUNNY   50  29  45 N24G33    29.99R
ELLICOTT       FAIR     N/A N/A N/A N28G33    29.97S
FALCON         PTSUNNY   48  30  50 N17G26    30.00S
FORT CARSON    SUNNY     54  28  36 N22G30    29.96S
LIMON          CLOUDY    48  36  63 N23       29.97F
MONUMENT HILL  FAIR      45  32  61 N21       30.01F
TRINIDAD       CLOUDY    47  35  63 N17       30.00S
$$

COZ042>045-048>051-090-091-292300-
...NORTHEAST COLORADO...

CITY           SKY/WX    TMP DP  RH WIND       PRES   REMARKS
GREELEY ARPT   FAIR      60  28  29 N20G26    29.96F
AKRON          CLOUDY    49  35  58 N20G28    29.96F
BURLINGTON     CLOUDY    44  38  79 N18       29.94S
WRAY           NOT AVBL
STERLING       PTSUNNY   52  37  58 NE15G22   29.95F
HOLYOKE        PTSUNNY   48  39  71 NE17      29.96S
FORT MORGAN    PTSUNNY   55  32  41 N17G23    29.97F
$$

COZ086-089-092>099-292300-
...SOUTHEAST COLORADO...

CITY           SKY/WX    TMP DP  RH WIND       PRES   REMARKS
PUEBLO         FAIR      58  33  39 NE23      29.95F
LA JUNTA       CLOUDY    52  35  52 N17       29.97S
LAMAR          CLOUDY    47  37  68 N17       29.95S
SPRINGFIELD      N/A     43  39  86 N23       29.94S
$$




USA.gov is the U.S. government's official web portal to all federal, state and local government web resources and services.